Zurück zum Katalog

COSMOS 2491 DEB

LostPO
NORAD 44996·DEBRIS·🇷🇺 Russia

Gestartet Dec 25, 2013 von Plesetsk Cosmodrome

Loading…

Nächste Überflüge (nächste 24 Stunden)

TLE

VeraltetSource: Space-Track

Epoche: Aug 10, 2026, 01:02 UTC

1 44996U 13076R   26222.04324040  .00000106  00000-0  68900-3 0  9993
2 44996  82.4831 135.0940 0016640 338.9114  21.1278 12.43363298299055

Verfolge COSMOS 2491 DEB in Echtzeit mit AllMySat

Download on the App Store